,,Stat6,,Stat2,,Stat8,,Stat9,,Stat10,,Wind1,,Wind1,
time,status,PA1M_AVG,status,PR1M_SUM,status,RH1M_AVG,status,SR1M_AVG,status,TA1M_AVG,status,W1dAve1m,status,W1sAve1m,
2006-12-18, 18:55:00,VALID,916.462,VALID,0.2,VALID,93.7605,VALID,0.0509425,VALID,21.3667,VALID,43,VALID,2.16283,
2006-12-18, 18:56:00,VALID,916.46,VALID,0,VALID,93.5214,VALID,0.0679233,VALID,21.3638,VALID,21,VALID,2.02102,
2006-12-18, 18:57:00,VALID,916.462,VALID,0,VALID,93.3663,VALID,0.0849042,VALID,21.3678,VALID,10,VALID,1.79616,
2006-12-18, 18:58:00,VALID,916.482,VALID,0,VALID,93.4337,VALID,0.0339617,VALID,21.3611,VALID,357,VALID,1.2484,
2006-12-18, 18:59:00,VALID,916.515,VALID,0,VALID,93.4807,VALID,0.0679233,VALID,21.3514,VALID,13,VALID,1.66425,
2006-12-18, 19:00:00,VALID,916.522,VALID,0,VALID,93.4311,VALID,0.0339617,VALID,21.3226,VALID,30,VALID,1.99829,
2006-12-18, 19:01:00,VALID,916.541,VALID,0,VALID,93.201,VALID,0.0339617,VALID,21.3422,VALID,21,VALID,1.7673,
2006-12-18, 19:02:00,VALID,916.565,VALID,0,VALID,92.5855,VALID,0.0339617,VALID,21.3589,VALID,20,VALID,2.17915,
2006-12-18, 19:03:00,VALID,916.589,VALID,0,VALID,92.6809,VALID,0.0679233,VALID,21.42,VALID,318,VALID,1.57937,
2006-12-18, 19:04:00,VALID,916.602,VALID,0,VALID,92.2803,VALID,0.0849042,VALID,21.4585,VALID,335,VALID,1.90415,
2006-12-18, 19:05:00,VALID,916.613,VALID,0,VALID,92.4495,VALID,0.0679233,VALID,21.4523,VALID,334,VALID,1.20198,
2006-12-18, 19:06:00,VALID,916.631,VALID,0,VALID,92.4635,VALID,0.0339617,VALID,21.4332,VALID,12,VALID,1.01715,
2006-12-18, 19:07:00,VALID,916.625,VALID,0,VALID,92.789,VALID,0.0339617,VALID,21.43,VALID,21,VALID,1.01835,
2006-12-18, 19:08:00,VALID,916.653,VALID,0,VALID,92.8297,VALID,0.0339617,VALID,21.4006,VALID,356,VALID,2.19833,
2006-12-18, 19:09:00,VALID,916.66,VALID,0,VALID,92.143,VALID,0.0509425,VALID,21.3778,VALID,353,VALID,2.59412,
2006-12-18, 19:10:00,VALID,916.684,VALID,0,VALID,91.848,VALID,0.0169808,VALID,21.3971,VALID,11,VALID,2.0436,
2006-12-18, 19:11:00,VALID,916.675,VALID,0,VALID,91.7946,VALID,0.0169808,VALID,21.4335,VALID,23,VALID,1.99795,
2006-12-18, 19:12:00,VALID,916.687,VALID,0,VALID,92.068,VALID,0.0169808,VALID,21.4623,VALID,16,VALID,1.40811,
2006-12-18, 19:13:00,VALID,916.671,VALID,0,VALID,91.9764,VALID,0.0169808,VALID,21.4496,VALID,20,VALID,1.76206,
2006-12-18, 19:14:00,VALID,916.674,VALID,0,VALID,91.8009,VALID,0,VALID,21.4432,VALID,23,VALID,1.51744,
2006-12-18, 19:15:00,VALID,916.671,VALID,0,VALID,91.998,VALID,0.0169808,VALID,21.4464,VALID,26,VALID,1.36446,
2006-12-18, 19:16:00,VALID,916.684,VALID,0,VALID,92.4889,VALID,0.0509425,VALID,21.4596,VALID,41,VALID,1.6064,
2006-12-18, 19:17:00,VALID,916.695,VALID,0,VALID,92.6313,VALID,0,VALID,21.4044,VALID,33,VALID,1.53601,
2006-12-18, 19:18:00,VALID,916.721,VALID,0,VALID,92.9225,VALID,0.0169808,VALID,21.3885,VALID,36,VALID,1.70585,
2006-12-18, 19:19:00,VALID,916.737,VALID,0,VALID,92.2765,VALID,0.0679233,VALID,21.3401,VALID,26,VALID,2.53997,
2006-12-18, 19:20:00,VALID,916.745,VALID,0,VALID,92.1227,VALID,0,VALID,21.3721,VALID,44,VALID,1.90272,
2006-12-18, 19:21:00,VALID,916.766,VALID,0,VALID,92.0451,VALID,0.0169808,VALID,21.4076,VALID,43,VALID,1.91667,
2006-12-18, 19:22:00,VALID,916.79,VALID,0,VALID,92.5397,VALID,0.0169808,VALID,21.4246,VALID,31,VALID,1.5316,
2006-12-18, 19:23:00,VALID,916.797,VALID,0,VALID,92.2295,VALID,0.0169808,VALID,21.3657,VALID,26,VALID,1.97148,
2006-12-18, 19:24:00,VALID,916.82,VALID,0,VALID,92.3223,VALID,0.0509425,VALID,21.3689,VALID,21,VALID,1.57656,
2006-12-18, 19:25:00,VALID,916.844,VALID,0,VALID,92.4965,VALID,0.0169808,VALID,21.3823,VALID,43,VALID,1.44341,
2006-12-18, 19:26:00,VALID,916.851,VALID,0,VALID,92.892,VALID,-0.0339617,VALID,21.3675,VALID,29,VALID,1.04705,
2006-12-18, 19:27:00,VALID,916.889,VALID,0,VALID,93.0039,VALID,-0.101885,VALID,21.3514,VALID,6,VALID,1.55729,
2006-12-18, 19:28:00,VALID,916.926,VALID,0,VALID,93.2239,VALID,-0.0849042,VALID,21.3156,VALID,24,VALID,1.72123,
2006-12-18, 19:29:00,VALID,916.941,VALID,0,VALID,93.2646,VALID,-0.0509425,VALID,21.2836,VALID,40,VALID,1.61905,
2006-12-18, 19:30:00,VALID,916.957,VALID,0,VALID,92.9657,VALID,-0.0339617,VALID,21.2806,VALID,23,VALID,1.83537,
2006-12-18, 19:31:00,VALID,916.974,VALID,0,VALID,92.8526,VALID,-0.0849042,VALID,21.293,VALID,21,VALID,2.14618,
2006-12-18, 19:32:00,VALID,917.001,VALID,0,VALID,92.8983,VALID,-0.0849042,VALID,21.3161,VALID,24,VALID,1.51711,
2006-12-18, 19:33:00,VALID,917.018,VALID,0,VALID,93.112,VALID,-0.0849042,VALID,21.3089,VALID,34,VALID,2.15934,
2006-12-18, 19:34:00,VALID,917.034,VALID,0,VALID,93.2328,VALID,-0.0849042,VALID,21.3099,VALID,37,VALID,1.6756,
2006-12-18, 19:35:00,VALID,917.038,VALID,0,VALID,93.0764,VALID,-0.0849042,VALID,21.2803,VALID,25,VALID,2.61646,
2006-12-18, 19:36:00,VALID,917.045,VALID,0,VALID,93.1806,VALID,-0.0849042,VALID,21.2672,VALID,29,VALID,2.37129,
2006-12-18, 19:37:00,VALID,917.058,VALID,0,VALID,93.0764,VALID,-0.0679233,VALID,21.2739,VALID,22,VALID,2.37083,
2006-12-18, 19:38:00,VALID,917.085,VALID,0,VALID,92.8844,VALID,-0.0509425,VALID,21.2962,VALID,11,VALID,2.00856,
2006-12-18, 19:39:00,VALID,917.093,VALID,0,VALID,92.6987,VALID,-0.0679233,VALID,21.3126,VALID,25,VALID,2.006,
2006-12-18, 19:40:00,VALID,917.099,VALID,0,VALID,92.3694,VALID,-0.0509425,VALID,21.3509,VALID,9,VALID,2.20117,
2006-12-18, 19:41:00,VALID,917.104,VALID,0,VALID,92.2257,VALID,0.0169808,VALID,21.392,VALID,23,VALID,2.05087,
2006-12-18, 19:42:00,VALID,917.121,VALID,0,VALID,92.2587,VALID,0.0339617,VALID,21.4111,VALID,37,VALID,2.23847,
2006-12-18, 19:43:00,VALID,917.118,VALID,0,VALID,92.3503,VALID,0.0169808,VALID,21.4076,VALID,38,VALID,2.0585,
2006-12-18, 19:44:00,VALID,917.132,VALID,0,VALID,92.7737,VALID,0.0339617,VALID,21.3885,VALID,31,VALID,1.40911,
2006-12-18, 19:45:00,VALID,917.16,VALID,0,VALID,92.9212,VALID,0.0169808,VALID,21.3692,VALID,36,VALID,1.90399,
2006-12-18, 19:46:00,VALID,917.177,VALID,0,VALID,92.9861,VALID,0,VALID,21.35,VALID,32,VALID,2.22729,
2006-12-18, 19:47:00,VALID,917.197,VALID,0,VALID,92.9161,VALID,0.0339617,VALID,21.3404,VALID,26,VALID,2.41369,
2006-12-18, 19:48:00,VALID,917.207,VALID,0,VALID,93.3472,VALID,0.0169808,VALID,21.3498,VALID,30,VALID,2.01563,
2006-12-18, 19:49:00,VALID,917.214,VALID,0,VALID,93.6015,VALID,0.0169808,VALID,21.3113,VALID,37,VALID,2.02907,
2006-12-18, 19:50:00,VALID,917.222,VALID,0,VALID,93.7936,VALID,0.0509425,VALID,21.2725,VALID,28,VALID,2.06389,
2006-12-18, 19:51:00,VALID,917.26,VALID,0,VALID,93.6155,VALID,0.0169808,VALID,21.2529,VALID,26,VALID,2.62464,
2006-12-18, 19:52:00,VALID,917.269,VALID,0,VALID,93.5456,VALID,0,VALID,21.2852,VALID,30,VALID,2.53032,
2006-12-18, 19:53:00,VALID,917.282,VALID,0,VALID,93.2747,VALID,0.0679233,VALID,21.3178,VALID,25,VALID,2.13215,
2006-12-18, 19:54:00,VALID,917.299,VALID,0,VALID,93.599,VALID,0,VALID,21.3374,VALID,23,VALID,1.98518,
2006-12-18, 19:55:00,VALID,917.323,VALID,0,VALID,93.8559,VALID,-0.0169808,VALID,21.3113,VALID,37,VALID,1.93545,
2006-12-18, 19:56:00,VALID,917.306,VALID,0,VALID,94.1382,VALID,-0.0679233,VALID,21.2968,VALID,20,VALID,1.27042,
2006-12-18, 19:57:00,VALID,917.297,VALID,0,VALID,94.1051,VALID,-0.0849042,VALID,21.2803,VALID,8,VALID,1.8194,
2006-12-18, 19:58:00,VALID,917.293,VALID,0,VALID,94.2551,VALID,-0.0679233,VALID,21.2575,VALID,16,VALID,1.77562,
2006-12-18, 19:59:00,VALID,917.304,VALID,0,VALID,94.4497,VALID,-0.0509425,VALID,21.2545,VALID,30,VALID,1.72656,
2006-12-18, 20:00:00,VALID,917.308,VALID,0,VALID,94.437,VALID,-0.0339617,VALID,21.2421,VALID,32,VALID,2.06323,
2006-12-18, 20:01:00,VALID,917.336,VALID,0,VALID,94.4026,VALID,-0.0679233,VALID,21.2252,VALID,30,VALID,1.79603,
2006-12-18, 20:02:00,VALID,917.344,VALID,0,VALID,94.3111,VALID,-0.0509425,VALID,21.2419,VALID,20,VALID,1.78013,
2006-12-18, 20:03:00,VALID,917.37,VALID,0,VALID,94.1623,VALID,-0.0339617,VALID,21.248,VALID,29,VALID,2.45294,
2006-12-18, 20:04:00,VALID,917.393,VALID,0,VALID,94.1038,VALID,-0.0339617,VALID,21.2545,VALID,29,VALID,1.93155,
2006-12-18, 20:05:00,VALID,917.407,VALID,0,VALID,94.1458,VALID,-0.0339617,VALID,21.2871,VALID,17,VALID,1.65053,
2006-12-18, 20:06:00,VALID,917.435,VALID,0,VALID,94.0008,VALID,-0.0339617,VALID,21.3032,VALID,357,VALID,2.01225,
2006-12-18, 20:07:00,VALID,917.447,VALID,0,VALID,93.5367,VALID,-0.0339617,VALID,21.3126,VALID,13,VALID,2.46667,
2006-12-18, 20:08:00,VALID,917.47,VALID,0,VALID,93.3803,VALID,-0.0679233,VALID,21.3576,VALID,13,VALID,2.12233,
2006-12-18, 20:09:00,VALID,917.493,VALID,0,VALID,93.5316,VALID,-0.0169808,VALID,21.4041,VALID,1,VALID,1.38926,
2006-12-18, 20:10:00,VALID,917.525,VALID,0,VALID,93.5163,VALID,-0.0849042,VALID,21.3907,VALID,10,VALID,1.80646,
2006-12-18, 20:11:00,VALID,917.53,VALID,0,VALID,93.7312,VALID,-0.0509425,VALID,21.3807,VALID,7,VALID,1.42297,
2006-12-18, 20:12:00,VALID,917.536,VALID,0,VALID,93.8978,VALID,-0.0679233,VALID,21.3546,VALID,6,VALID,1.51563,
2006-12-18, 20:13:00,VALID,917.527,VALID,0,VALID,94.0161,VALID,-0.0509425,VALID,21.3379,VALID,18,VALID,1.96512,
2006-12-18, 20:14:00,VALID,917.51,VALID,0,VALID,93.9093,VALID,-0.0849042,VALID,21.3358,VALID,20,VALID,2.0524,
2006-12-18, 20:15:00,VALID,917.518,VALID,0,VALID,93.9055,VALID,-0.0849042,VALID,21.3417,VALID,22,VALID,1.58103,
2006-12-18, 20:16:00,VALID,917.519,VALID,0,VALID,93.8927,VALID,-0.0849042,VALID,21.3482,VALID,13,VALID,2.31623,
2006-12-18, 20:17:00,VALID,917.528,VALID,0,VALID,93.852,VALID,-0.0679233,VALID,21.3587,VALID,8,VALID,2.51367,
2006-12-18, 20:18:00,VALID,917.521,VALID,0,VALID,93.7325,VALID,-0.0849042,VALID,21.3514,VALID,13,VALID,2.25109,
2006-12-18, 20:19:00,VALID,917.526,VALID,0,VALID,93.5659,VALID,-0.0679233,VALID,21.3875,VALID,25,VALID,1.32013,
2006-12-18, 20:20:00,VALID,917.536,VALID,0,VALID,93.1997,VALID,-0.0849042,VALID,21.4095,VALID,13,VALID,2.25893,
2006-12-18, 20:21:00,VALID,917.541,VALID,0,VALID,93.1819,VALID,-0.0509425,VALID,21.4416,VALID,16,VALID,1.66109,
2006-12-18, 20:22:00,VALID,917.557,VALID,0,VALID,93.023,VALID,-0.0509425,VALID,21.4577,VALID,34,VALID,1.99491,
2006-12-18, 20:23:00,VALID,917.558,VALID,0,VALID,93.0522,VALID,-0.0679233,VALID,21.4615,VALID,25,VALID,2.59236,
2006-12-18, 20:24:00,VALID,917.599,VALID,0,VALID,93.0217,VALID,-0.0679233,VALID,21.4617,VALID,22,VALID,1.97257,
2006-12-18, 20:25:00,VALID,917.633,VALID,0,VALID,93.0993,VALID,0.0339617,VALID,21.4572,VALID,15,VALID,2.25581,
2006-12-18, 20:26:00,VALID,917.639,VALID,0,VALID,93.1603,VALID,0.0679233,VALID,21.4397,VALID,354,VALID,2.25675,
2006-12-18, 20:27:00,VALID,917.658,VALID,0,VALID,93.2264,VALID,0.0169808,VALID,21.4367,VALID,26,VALID,2.15495,
2006-12-18, 20:28:00,VALID,917.687,VALID,0,VALID,93.2518,VALID,0.0509425,VALID,21.4405,VALID,13,VALID,2.28887,
2006-12-18, 20:29:00,VALID,917.689,VALID,0,VALID,93.2531,VALID,0.0339617,VALID,21.4176,VALID,20,VALID,2.23307,
2006-12-18, 20:30:00,VALID,917.688,VALID,0,VALID,93.3714,VALID,0.101885,VALID,21.4076,VALID,16,VALID,1.51581,
2006-12-18, 20:31:00,VALID,917.714,VALID,0,VALID,93.4222,VALID,0.0679233,VALID,21.3982,VALID,9,VALID,1.90293,
2006-12-18, 20:32:00,VALID,917.722,VALID,0,VALID,93.4464,VALID,0.0849042,VALID,21.3885,VALID,36,VALID,2.20685,
2006-12-18, 20:33:00,VALID,917.737,VALID,0,VALID,93.2925,VALID,0.0509425,VALID,21.3885,VALID,18,VALID,2.16372,
2006-12-18, 20:34:00,VALID,917.75,VALID,0,VALID,93.145,VALID,0.0509425,VALID,21.4206,VALID,7,VALID,2.41346,
2006-12-18, 20:35:00,VALID,917.791,VALID,0,VALID,93.3294,VALID,0.0169808,VALID,21.4499,VALID,8,VALID,1.53683,
2006-12-18, 20:36:00,VALID,917.809,VALID,0,VALID,93.1768,VALID,0.0169808,VALID,21.4367,VALID,17,VALID,1.97763,
2006-12-18, 20:37:00,VALID,917.84,VALID,0,VALID,93.187,VALID,0.0169808,VALID,21.437,VALID,15,VALID,2.22496,
2006-12-18, 20:38:00,VALID,917.853,VALID,0,VALID,93.145,VALID,0.101885,VALID,21.4534,VALID,19,VALID,2.31615,
2006-12-18, 20:39:00,VALID,917.869,VALID,0,VALID,93.3383,VALID,0.0679233,VALID,21.4529,VALID,13,VALID,2.234,
2006-12-18, 20:40:00,VALID,917.867,VALID,0,VALID,93.3637,VALID,0.0169808,VALID,21.4372,VALID,30,VALID,2.17986,
2006-12-18, 20:41:00,VALID,917.889,VALID,0,VALID,93.4261,VALID,-0.0849042,VALID,21.4512,VALID,358,VALID,1.69149,
2006-12-18, 20:42:00,VALID,917.885,VALID,0,VALID,93.4095,VALID,-0.0849042,VALID,21.4577,VALID,24,VALID,2.21189,
2006-12-18, 20:43:00,VALID,917.874,VALID,0,VALID,93.6092,VALID,-0.0339617,VALID,21.448,VALID,12,VALID,1.52565,
2006-12-18, 20:44:00,VALID,917.88,VALID,0,VALID,93.73,VALID,-0.0849042,VALID,21.4321,VALID,5,VALID,2.20796,
2006-12-18, 20:45:00,VALID,917.894,VALID,0,VALID,93.9461,VALID,-0.0339617,VALID,21.4122,VALID,12,VALID,2.30312,
2006-12-18, 20:46:00,VALID,917.868,VALID,0,VALID,93.8304,VALID,-0.0339617,VALID,21.3963,VALID,357,VALID,2.13104,
2006-12-18, 20:47:00,VALID,917.884,VALID,0,VALID,93.8533,VALID,-0.0849042,VALID,21.4128,VALID,10,VALID,1.96131,
2006-12-18, 20:48:00,VALID,917.888,VALID,0,VALID,93.9169,VALID,-0.0339617,VALID,21.4093,VALID,20,VALID,2.90382,
2006-12-18, 20:49:00,VALID,917.894,VALID,0,VALID,93.8978,VALID,-0.0509425,VALID,21.3963,VALID,21,VALID,2.77998,
2006-12-18, 20:50:00,VALID,917.863,VALID,0,VALID,93.8114,VALID,-0.0849042,VALID,21.406,VALID,13,VALID,2.68005,
2006-12-18, 20:51:00,VALID,917.855,VALID,0,VALID,93.7312,VALID,-0.0679233,VALID,21.416,VALID,15,VALID,2.17932,
2006-12-18, 20:52:00,VALID,917.847,VALID,0,VALID,93.379,VALID,-0.0339617,VALID,21.4418,VALID,28,VALID,2.28835,
2006-12-18, 20:53:00,VALID,917.904,VALID,0,VALID,93.4362,VALID,-0.0339617,VALID,21.4706,VALID,1,VALID,1.8231,
2006-12-18, 20:54:00,VALID,917.953,VALID,0,VALID,93.4172,VALID,0,VALID,21.4706,VALID,7,VALID,2.62795,
2006-12-18, 20:55:00,VALID,917.968,VALID,0,VALID,93.0751,VALID,-0.0509425,VALID,21.4938,VALID,21,VALID,1.82961,
2006-12-18, 20:56:00,VALID,917.995,VALID,0,VALID,93.0242,VALID,-0.0509425,VALID,21.5193,VALID,29,VALID,2.69551,
2006-12-18, 20:57:00,VALID,918.037,VALID,0,VALID,92.822,VALID,-0.0849042,VALID,21.5261,VALID,15,VALID,2.45117,
2006-12-18, 20:58:00,VALID,918.062,VALID,0,VALID,92.9759,VALID,-0.0849042,VALID,21.5457,VALID,18,VALID,2.65923,
2006-12-18, 20:59:00,VALID,918.085,VALID,0,VALID,92.8475,VALID,-0.0679233,VALID,21.5422,VALID,10,VALID,2.31374,
2006-12-18, 21:00:00,VALID,918.093,VALID,0,VALID,92.8233,VALID,-0.0849042,VALID,21.5387,VALID,1,VALID,1.75451,
2006-12-18, 21:01:00,VALID,918.098,VALID,0,VALID,93.0827,VALID,-0.0679233,VALID,21.5484,VALID,17,VALID,1.65575,
2006-12-18, 21:02:00,VALID,918.125,VALID,0,VALID,93.3803,VALID,-0.101885,VALID,21.5199,VALID,13,VALID,1.96893,
2006-12-18, 21:03:00,VALID,918.135,VALID,0,VALID,93.8953,VALID,-0.0679233,VALID,21.4744,VALID,329,VALID,1.84517,
2006-12-18, 21:04:00,VALID,918.118,VALID,0,VALID,93.6486,VALID,-0.101885,VALID,21.4259,VALID,330,VALID,3.28088,
2006-12-18, 21:05:00,VALID,918.189,VALID,0,VALID,93.5914,VALID,-0.0339617,VALID,21.4351,VALID,34,VALID,2.38281,
2006-12-18, 21:06:00,VALID,918.22,VALID,0,VALID,93.5914,VALID,-0.0849042,VALID,21.4453,VALID,17,VALID,2.02379,
2006-12-18, 21:07:00,VALID,918.212,VALID,0,VALID,93.852,VALID,-0.0849042,VALID,21.4324,VALID,28,VALID,1.59339,
2006-12-18, 21:08:00,VALID,918.209,VALID,0,VALID,93.9322,VALID,-0.0509425,VALID,21.4028,VALID,18,VALID,2.49102,
2006-12-18, 21:09:00,VALID,918.208,VALID,0,VALID,93.1323,VALID,-0.0849042,VALID,21.4163,VALID,17,VALID,2.5639,
2006-12-18, 21:10:00,VALID,918.23,VALID,0,VALID,93.0827,VALID,-0.0339617,VALID,21.4962,VALID,349,VALID,1.25167,
2006-12-18, 21:11:00,VALID,918.258,VALID,0,VALID,93.4464,VALID,0.0339617,VALID,21.5403,VALID,327,VALID,1.46559,
2006-12-18, 21:12:00,VALID,918.275,VALID,0,VALID,93.5774,VALID,0.0509425,VALID,21.4919,VALID,1,VALID,1.66216,
2006-12-18, 21:13:00,VALID,918.279,VALID,0,VALID,93.8749,VALID,0.0509425,VALID,21.4469,VALID,20,VALID,2.10547,
2006-12-18, 21:14:00,VALID,918.301,VALID,0,VALID,94.0593,VALID,0.0509425,VALID,21.4079,VALID,4,VALID,2.0279,
2006-12-18, 21:15:00,VALID,918.306,VALID,0,VALID,94.3098,VALID,0.0679233,VALID,21.392,VALID,19,VALID,1.56536,
2006-12-18, 21:16:00,VALID,918.336,VALID,0,VALID,94.4535,VALID,0.0339617,VALID,21.3595,VALID,358,VALID,2.08129,
2006-12-18, 21:17:00,VALID,918.355,VALID,0,VALID,94.6748,VALID,0.0679233,VALID,21.3301,VALID,19,VALID,2.25577,
2006-12-18, 21:18:00,VALID,918.368,VALID,0,VALID,94.6697,VALID,0.0679233,VALID,21.3143,VALID,18,VALID,2.25363,
2006-12-18, 21:19:00,VALID,918.395,VALID,0,VALID,94.5832,VALID,0.0339617,VALID,21.321,VALID,16,VALID,1.69866,
2006-12-18, 21:20:00,VALID,918.408,VALID,0,VALID,94.3925,VALID,0.0339617,VALID,21.3277,VALID,351,VALID,1.8218,
2006-12-18, 21:21:00,VALID,918.424,VALID,0,VALID,94.5438,VALID,0.0679233,VALID,21.3431,VALID,24,VALID,1.79557,
2006-12-18, 21:22:00,VALID,918.417,VALID,0,VALID,94.526,VALID,0.0339617,VALID,21.3269,VALID,2,VALID,1.82031,
2006-12-18, 21:23:00,VALID,918.423,VALID,0,VALID,94.704,VALID,0.0339617,VALID,21.3336,VALID,341,VALID,0.926736,
2006-12-18, 21:24:00,VALID,918.424,VALID,0,VALID,94.793,VALID,0.0509425,VALID,21.3207,VALID,354,VALID,0.974516,
2006-12-18, 21:25:00,VALID,918.44,VALID,0,VALID,95.027,VALID,0.0339617,VALID,21.3051,VALID,15,VALID,0.851017,
2006-12-18, 21:26:00,VALID,918.452,VALID,0,VALID,94.9634,VALID,-0.0339617,VALID,21.297,VALID,20,VALID,0.960379,
2006-12-18, 21:27:00,VALID,918.448,VALID,0,VALID,95.2165,VALID,-0.0509425,VALID,21.2642,VALID,17,VALID,0.759673,
2006-12-18, 21:28:00,VALID,918.451,VALID,0,VALID,95.1097,VALID,-0.0509425,VALID,21.2483,VALID,32,VALID,1.7623,
2006-12-18, 21:29:00,VALID,918.449,VALID,0,VALID,95.0842,VALID,-0.0849042,VALID,21.2349,VALID,47,VALID,0.944222,
2006-12-18, 21:30:00,VALID,918.479,VALID,0,VALID,95.1542,VALID,-0.0849042,VALID,21.265,VALID,13,VALID,0.764063,
2006-12-18, 21:31:00,VALID,918.51,VALID,0,VALID,95.1351,VALID,-0.0679233,VALID,21.2548,VALID,28,VALID,0.7625,
2006-12-18, 21:32:00,VALID,918.525,VALID,0,VALID,95.0537,VALID,-0.0509425,VALID,21.2454,VALID,28,VALID,1.09393,
2006-12-18, 21:33:00,VALID,918.516,VALID,0.2,VALID,95.219,VALID,-0.0679233,VALID,21.2521,VALID,57,VALID,0.406436,
2006-12-18, 21:34:00,VALID,918.521,VALID,0,VALID,95.4454,VALID,-0.0849042,VALID,21.2612,VALID,63,VALID,0.111374,
2006-12-18, 21:35:00,VALID,918.538,VALID,0,VALID,95.3996,VALID,-0.0679233,VALID,21.2712,VALID,63,VALID,0.114397,
2006-12-18, 21:36:00,VALID,918.535,VALID,0,VALID,95.1313,VALID,-0.0679233,VALID,21.2653,VALID,63,VALID,0.378089,
2006-12-18, 21:37:00,VALID,918.559,VALID,0,VALID,95.2025,VALID,-0.101885,VALID,21.2548,VALID,63,VALID,0.0506944,
2006-12-18, 21:38:00,VALID,918.564,VALID,0,VALID,95.2839,VALID,-0.0849042,VALID,21.2712,VALID,63,VALID,0.0795785,
2006-12-18, 21:39:00,VALID,918.561,VALID,0,VALID,95.2267,VALID,-0.0849042,VALID,21.2645,VALID,52,VALID,0.387649,
2006-12-18, 21:40:00,VALID,918.555,VALID,0,VALID,95.322,VALID,-0.0679233,VALID,21.2639,VALID,312,VALID,0.645089,
2006-12-18, 21:41:00,VALID,918.554,VALID,0,VALID,95.2928,VALID,0.0169808,VALID,21.2688,VALID,281,VALID,0.478966,
2006-12-18, 21:42:00,VALID,918.55,VALID,0,VALID,95.4034,VALID,0,VALID,21.2855,VALID,335,VALID,0.569336,
2006-12-18, 21:43:00,VALID,918.529,VALID,0,VALID,95.3945,VALID,0.0169808,VALID,21.2855,VALID,47,VALID,0.971726,
2006-12-18, 21:44:00,VALID,918.515,VALID,0,VALID,95.4047,VALID,0,VALID,21.2599,VALID,19,VALID,0.914063,
2006-12-18, 21:45:00,VALID,918.5,VALID,0,VALID,95.4543,VALID,0,VALID,21.2437,VALID,22,VALID,0.488735,
2006-12-18, 21:46:00,VALID,918.476,VALID,0,VALID,95.3678,VALID,0,VALID,21.2238,VALID,44,VALID,0.692708,
2006-12-18, 21:47:00,VALID,918.464,VALID,0,VALID,95.4136,VALID,0,VALID,21.2241,VALID,55,VALID,0.682292,
2006-12-18, 21:48:00,VALID,918.438,VALID,0,VALID,95.5954,VALID,0,VALID,21.2142,VALID,37,VALID,1.01908,
2006-12-18, 21:49:00,VALID,918.408,VALID,0,VALID,95.7162,VALID,0,VALID,21.208,VALID,42,VALID,1.17987,
2006-12-18, 21:50:00,VALID,918.389,VALID,0,VALID,95.8269,VALID,0.0169808,VALID,21.1921,VALID,42,VALID,1.34877,
2006-12-18, 21:51:00,VALID,918.377,VALID,0,VALID,95.8803,VALID,0,VALID,21.1528,VALID,39,VALID,0.829799,
2006-12-18, 21:52:00,VALID,918.371,VALID,0,VALID,96.0494,VALID,0,VALID,21.1436,VALID,43,VALID,0.3391,
2006-12-18, 21:53:00,VALID,918.371,VALID,0,VALID,96.0901,VALID,0,VALID,21.1175,VALID,44,VALID,0.524891,
2006-12-18, 21:54:00,VALID,918.364,VALID,0,VALID,96.2032,VALID,-0.0169808,VALID,21.1044,VALID,52,VALID,0.729911,
2006-12-18, 21:55:00,VALID,918.358,VALID,0,VALID,96.3406,VALID,0,VALID,21.0887,VALID,58,VALID,0.675509,
2006-12-18, 21:56:00,VALID,918.343,VALID,0,VALID,96.4436,VALID,0,VALID,21.0597,VALID,51,VALID,0.781039,
2006-12-18, 21:57:00,VALID,918.32,VALID,0,VALID,96.2986,VALID,0,VALID,21.0231,VALID,54,VALID,0.848958,
2006-12-18, 21:58:00,VALID,918.314,VALID,0,VALID,96.319,VALID,0,VALID,21.0204,VALID,55,VALID,0.757457,
2006-12-18, 21:59:00,VALID,918.303,VALID,0,VALID,96.1091,VALID,0,VALID,21.0137,VALID,63,VALID,0.553646,
2006-12-18, 22:00:00,VALID,918.279,VALID,0,VALID,96.1676,VALID,0,VALID,21.0592,VALID,65,VALID,0.418341,
2006-12-18, 22:01:00,VALID,918.262,VALID,0,VALID,96.1956,VALID,0,VALID,21.0984,VALID,50,VALID,0.609375,
2006-12-18, 22:02:00,VALID,918.286,VALID,0,VALID,96.2109,VALID,0,VALID,21.1186,VALID,38,VALID,0.926639,
2006-12-18, 22:03:00,VALID,918.292,VALID,0,VALID,96.2503,VALID,0,VALID,21.0885,VALID,30,VALID,0.913368,
2006-12-18, 22:04:00,VALID,918.272,VALID,0,VALID,96.2846,VALID,0,VALID,21.0398,VALID,33,VALID,0.987805,
2006-12-18, 22:05:00,VALID,918.256,VALID,0,VALID,96.2363,VALID,0,VALID,21.0236,VALID,52,VALID,1.08929,
2006-12-18, 22:06:00,VALID,918.224,VALID,0,VALID,96.1295,VALID,0,VALID,21.0306,VALID,55,VALID,1.40007,
2006-12-18, 22:07:00,VALID,918.185,VALID,0,VALID,96.0417,VALID,0,VALID,21.0403,VALID,57,VALID,1.17188,
2006-12-18, 22:08:00,VALID,918.161,VALID,0,VALID,96.0646,VALID,0,VALID,21.0562,VALID,55,VALID,1.09993,
2006-12-18, 22:09:00,VALID,918.154,VALID,0,VALID,96.0939,VALID,0,VALID,21.0532,VALID,37,VALID,1.2358,
2006-12-18, 22:10:00,VALID,918.153,VALID,0,VALID,96.249,VALID,-0.0169808,VALID,21.0503,VALID,49,VALID,0.766242,
2006-12-18, 22:11:00,VALID,918.127,VALID,0,VALID,96.3062,VALID,-0.101885,VALID,21.0188,VALID,45,VALID,0.647852,
2006-12-18, 22:12:00,VALID,918.118,VALID,0,VALID,96.3953,VALID,-0.101885,VALID,21.0096,VALID,59,VALID,0.739281,
2006-12-18, 22:13:00,VALID,918.097,VALID,0,VALID,96.441,VALID,-0.118866,VALID,20.9867,VALID,66,VALID,0.46733,
2006-12-18, 22:14:00,VALID,918.067,VALID,0,VALID,96.4957,VALID,-0.0849042,VALID,20.9929,VALID,42,VALID,0.801235,
2006-12-18, 22:15:00,VALID,918.058,VALID,0,VALID,96.4156,VALID,-0.101885,VALID,20.9972,VALID,26,VALID,0.954459,
2006-12-18, 22:16:00,VALID,918.03,VALID,0,VALID,96.4372,VALID,-0.0679233,VALID,20.9964,VALID,30,VALID,0.477325,
2006-12-18, 22:17:00,VALID,918.006,VALID,0.2,VALID,96.455,VALID,-0.101885,VALID,21.0034,VALID,59,VALID,0.560501,
2006-12-18, 22:18:00,VALID,917.974,VALID,0,VALID,96.5389,VALID,-0.0849042,VALID,20.9902,VALID,98,VALID,0.294331,
2006-12-18, 22:19:00,VALID,917.954,VALID,0,VALID,96.6432,VALID,-0.101885,VALID,20.9935,VALID,40,VALID,0.950868,
2006-12-18, 22:20:00,VALID,917.945,VALID,0,VALID,96.3558,VALID,-0.101885,VALID,20.9676,VALID,31,VALID,1.79851,
2006-12-18, 22:21:00,VALID,917.922,VALID,0,VALID,96.1829,VALID,-0.0849042,VALID,20.9353,VALID,31,VALID,1.30525,
2006-12-18, 22:22:00,VALID,917.904,VALID,0,VALID,96.0964,VALID,-0.0679233,VALID,20.9256,VALID,29,VALID,0.96513,
2006-12-18, 22:23:00,VALID,917.877,VALID,0,VALID,95.996,VALID,-0.0849042,VALID,20.91,VALID,319,VALID,1.09989,
2006-12-18, 22:24:00,VALID,917.863,VALID,0,VALID,95.9769,VALID,-0.101885,VALID,20.906,VALID,29,VALID,1.02521,
2006-12-18, 22:25:00,VALID,917.853,VALID,0,VALID,95.3462,VALID,-0.0339617,VALID,20.8762,VALID,30,VALID,1.99764,
2006-12-18, 22:26:00,VALID,917.845,VALID,0,VALID,94.9418,VALID,0.0169808,VALID,20.8719,VALID,343,VALID,1.56499,
2006-12-18, 22:27:00,VALID,917.836,VALID,0,VALID,94.4357,VALID,0.0169808,VALID,20.905,VALID,335,VALID,2.04397,
2006-12-18, 22:28:00,VALID,917.833,VALID,0,VALID,94.4929,VALID,0.0169808,VALID,20.9469,VALID,354,VALID,1.22161,